EK41Z LFPG-EGCC

Flight info

Callsign EK41Z
Flight time 1h 3m
Altitude 40000
Route ATREX DCT VESAN DCT RATUK DCT SOVAT L613 SANDY UN57 WELIN T420 ELVOS
Aircraft A333/H-SDE3GHIJ2J3J5M1RVWXY/LB2D1

Departure

Time 2026-05-07 18:41
Airport Charles de Gaulle International Airport (LFPG)

Arrival

Time 2026-05-07 19:45
Airport Manchester Airport (EGCC)
Time Latitude Longitude Altitude Speed Heading
2026-05-07 18:26 48.99990 2.56059 363 ft 0 kts 154°
2026-05-07 18:34 49.00003 2.56049 367 ft 4 kts 154°
2026-05-07 18:34 49.00028 2.56031 365 ft 4 kts 154°
2026-05-07 18:34 49.00052 2.56015 362 ft 4 kts 171°
2026-05-07 18:35 49.00075 2.56019 364 ft 4 kts 225°
2026-05-07 18:35 49.00083 2.56038 366 ft 1 kts 264°
2026-05-07 18:36 49.00082 2.56035 366 ft 2 kts 264°
2026-05-07 18:37 49.00080 2.55996 365 ft 5 kts 264°
2026-05-07 18:37 49.00076 2.55925 365 ft 10 kts 266°
2026-05-07 18:37 49.00073 2.55812 362 ft 11 kts 269°
2026-05-07 18:37 49.00062 2.55692 361 ft 11 kts 238°
2026-05-07 18:38 48.99992 2.55674 365 ft 11 kts 168°
2026-05-07 18:38 48.99931 2.55742 361 ft 11 kts 130°
2026-05-07 18:38 48.99867 2.55792 365 ft 10 kts 172°
2026-05-07 18:38 48.99793 2.55803 365 ft 12 kts 175°
2026-05-07 18:39 48.99707 2.55814 361 ft 10 kts 175°
2026-05-07 18:39 48.99703 2.55814 362 ft 1 kts 175°
2026-05-07 18:39 48.99689 2.55816 364 ft 4 kts 175°
2026-05-07 18:39 48.99655 2.55820 363 ft 6 kts 175°
2026-05-07 18:40 48.99616 2.55829 363 ft 2 kts 153°
2026-05-07 18:40 48.99610 2.55850 363 ft 3 kts 108°
2026-05-07 18:40 48.99605 2.55941 360 ft 24 kts 91°
2026-05-07 18:40 48.99623 2.56508 364 ft 84 kts 84°
2026-05-07 18:41 48.99693 2.57709 359 ft 141 kts 85°
2026-05-07 18:41 48.99799 2.59426 649 ft 170 kts 83°
2026-05-07 18:41 48.99918 2.61238 1536 ft 172 kts 83°
2026-05-07 18:41 49.00050 2.63094 2210 ft 185 kts 83°
2026-05-07 18:42 49.00162 2.65169 2708 ft 208 kts 86°
2026-05-07 18:42 49.00261 2.67496 3220 ft 232 kts 86°
2026-05-07 18:42 49.00377 2.70049 3746 ft 250 kts 85°
2026-05-07 18:42 49.00507 2.72741 4265 ft 258 kts 85°
2026-05-07 18:43 49.00644 2.75493 4787 ft 263 kts 85°
2026-05-07 18:43 49.00785 2.78286 5301 ft 266 kts 85°
2026-05-07 18:43 49.00929 2.81111 5802 ft 270 kts 85°
2026-05-07 18:43 49.01263 2.83939 6327 ft 274 kts 70°
2026-05-07 18:44 49.02284 2.86369 6825 ft 275 kts 42°
2026-05-07 18:44 49.03934 2.87793 7322 ft 276 kts 13°
2026-05-07 18:44 49.05836 2.87868 7838 ft 276 kts 346°
2026-05-07 18:44 49.07652 2.86880 8355 ft 280 kts 335°
2026-05-07 18:45 49.09428 2.85629 8879 ft 283 kts 333°
2026-05-07 18:45 49.11193 2.84357 9404 ft 286 kts 334°
2026-05-07 18:45 49.13002 2.83067 9943 ft 288 kts 334°
2026-05-07 18:45 49.14847 2.81764 10432 ft 299 kts 334°
2026-05-07 18:46 49.16786 2.80404 10933 ft 315 kts 334°
2026-05-07 18:46 49.18824 2.78978 11444 ft 329 kts 334°
2026-05-07 18:46 49.20946 2.77498 11936 ft 339 kts 334°
2026-05-07 18:46 49.23108 2.75990 12466 ft 343 kts 334°
2026-05-07 18:47 49.25286 2.74472 12986 ft 345 kts 334°
2026-05-07 18:47 49.26767 2.73439 13346 ft 347 kts 333°
2026-05-07 18:47 49.28975 2.71896 13879 ft 350 kts 333°
2026-05-07 18:47 49.31916 2.69839 14523 ft 353 kts 333°
2026-05-07 18:48 49.33426 2.68782 14864 ft 354 kts 333°
2026-05-07 18:48 49.35675 2.67207 15358 ft 356 kts 333°
2026-05-07 18:48 49.37932 2.65623 15856 ft 358 kts 333°
2026-05-07 18:48 49.40203 2.64028 16365 ft 360 kts 333°
2026-05-07 18:49 49.42487 2.62423 16890 ft 362 kts 333°
2026-05-07 18:49 49.44787 2.60805 17419 ft 365 kts 333°
2026-05-07 18:49 49.47072 2.59195 17951 ft 367 kts 333°
2026-05-07 18:49 49.49434 2.57530 18486 ft 370 kts 333°
2026-05-07 18:50 49.51779 2.55874 18967 ft 372 kts 333°
2026-05-07 18:50 49.54142 2.54205 19450 ft 375 kts 333°
2026-05-07 18:50 49.56520 2.52522 19944 ft 377 kts 333°
2026-05-07 18:50 49.58916 2.50826 20442 ft 380 kts 333°
2026-05-07 18:51 49.61328 2.49116 20961 ft 383 kts 333°
2026-05-07 18:51 49.63757 2.47393 21482 ft 386 kts 333°
2026-05-07 18:51 49.66170 2.45678 21999 ft 389 kts 333°
2026-05-07 18:51 49.68636 2.43924 22541 ft 392 kts 333°
2026-05-07 18:52 49.71120 2.42155 23087 ft 395 kts 333°
2026-05-07 18:52 49.73624 2.40371 23647 ft 398 kts 333°
2026-05-07 18:52 49.76145 2.38571 24112 ft 400 kts 333°
2026-05-07 18:52 49.78689 2.36785 24602 ft 403 kts 334°
2026-05-07 18:53 49.81287 2.35139 25075 ft 405 kts 336°
2026-05-07 18:53 49.83929 2.33593 25581 ft 407 kts 337°
2026-05-07 18:53 49.86590 2.32089 26080 ft 408 kts 338°
2026-05-07 18:53 49.89260 2.30593 26592 ft 408 kts 338°
2026-05-07 18:54 49.91926 2.29091 27121 ft 408 kts 337°
2026-05-07 18:54 49.94595 2.27572 27631 ft 408 kts 337°
2026-05-07 18:54 49.97256 2.26043 28191 ft 408 kts 337°
2026-05-07 18:54 49.99913 2.24506 28738 ft 407 kts 337°
2026-05-07 18:55 50.02566 2.22964 29156 ft 410 kts 337°
2026-05-07 18:55 50.05261 2.21391 29345 ft 417 kts 337°
2026-05-07 18:55 50.08005 2.19786 29507 ft 425 kts 337°
2026-05-07 18:55 50.10800 2.18150 29685 ft 433 kts 337°
2026-05-07 18:56 50.13646 2.16485 29894 ft 440 kts 337°
2026-05-07 18:56 50.16524 2.14800 30196 ft 444 kts 337°
2026-05-07 18:56 50.19426 2.13101 30547 ft 446 kts 337°
2026-05-07 18:56 50.22340 2.11394 30895 ft 448 kts 337°
2026-05-07 18:57 50.25269 2.09674 31241 ft 451 kts 337°
2026-05-07 18:57 50.28207 2.07947 31573 ft 453 kts 337°
2026-05-07 18:57 50.31164 2.06206 31922 ft 455 kts 336°
2026-05-07 18:57 50.34120 2.04416 32237 ft 456 kts 334°
2026-05-07 18:58 50.36933 2.02158 32634 ft 453 kts 326°
2026-05-07 18:58 50.39496 1.99331 33113 ft 449 kts 319°
2026-05-07 18:58 50.41923 1.96271 33652 ft 446 kts 317°
2026-05-07 18:58 50.44286 1.93141 33996 ft 445 kts 316°
2026-05-07 18:59 50.46625 1.89957 34058 ft 445 kts 316°
2026-05-07 18:59 50.51264 1.83547 34049 ft 444 kts 316°
2026-05-07 19:00 50.55910 1.77128 34035 ft 445 kts 316°
2026-05-07 19:00 50.60566 1.70717 34049 ft 445 kts 316°
2026-05-07 19:01 50.65224 1.64302 34063 ft 444 kts 316°
2026-05-07 19:01 50.69869 1.57887 34060 ft 444 kts 316°
2026-05-07 19:02 50.74504 1.51460 34058 ft 444 kts 316°
2026-05-07 19:02 50.79135 1.45021 34058 ft 443 kts 316°
2026-05-07 19:03 50.83767 1.38569 34064 ft 444 kts 316°
2026-05-07 19:03 50.86647 1.34550 34063 ft 444 kts 316°
2026-05-07 19:04 50.91272 1.28082 34071 ft 443 kts 315°
2026-05-07 19:04 50.95888 1.21607 34071 ft 443 kts 315°
2026-05-07 19:05 51.00493 1.15129 34072 ft 443 kts 315°
2026-05-07 19:05 51.05098 1.08633 34074 ft 443 kts 315°
2026-05-07 19:06 51.09603 1.01982 34072 ft 442 kts 313°
2026-05-07 19:06 51.16178 0.91702 34031 ft 442 kts 313°
2026-05-07 19:07 51.20564 0.84825 33991 ft 443 kts 313°
2026-05-07 19:07 51.24961 0.77950 33960 ft 443 kts 313°
2026-05-07 19:08 51.29361 0.71066 33940 ft 443 kts 313°
2026-05-07 19:08 51.33755 0.64172 34072 ft 443 kts 313°
2026-05-07 19:09 51.38135 0.57280 34070 ft 441 kts 312°
2026-05-07 19:09 51.42504 0.50384 34070 ft 441 kts 312°
2026-05-07 19:10 51.46843 0.43514 34074 ft 441 kts 312°
2026-05-07 19:10 51.51239 0.36535 34070 ft 442 kts 312°
2026-05-07 19:11 51.55604 0.29585 34070 ft 442 kts 312°
2026-05-07 19:11 51.59962 0.22627 34071 ft 441 kts 312°
2026-05-07 19:12 51.64313 0.15659 34071 ft 441 kts 312°
2026-05-07 19:12 51.68625 0.08640 34071 ft 441 kts 311°
2026-05-07 19:13 51.72915 0.01577 34075 ft 441 kts 311°
2026-05-07 19:13 51.77205 -0.05505 33920 ft 441 kts 311°
2026-05-07 19:14 51.79352 -0.09054 33647 ft 442 kts 311°
2026-05-07 19:14 51.81498 -0.12605 33385 ft 442 kts 311°
2026-05-07 19:14 51.83649 -0.16167 33091 ft 442 kts 311°
2026-05-07 19:14 51.85797 -0.19729 32817 ft 443 kts 311°
2026-05-07 19:15 51.87920 -0.23254 32557 ft 443 kts 311°
2026-05-07 19:15 51.90070 -0.26831 32288 ft 444 kts 311°
2026-05-07 19:15 51.92223 -0.30418 32028 ft 444 kts 311°
2026-05-07 19:15 51.94374 -0.34004 31765 ft 443 kts 311°
2026-05-07 19:16 51.96513 -0.37577 31507 ft 441 kts 311°
2026-05-07 19:16 51.98642 -0.41137 31251 ft 439 kts 311°
2026-05-07 19:16 52.00765 -0.44692 30991 ft 437 kts 311°
2026-05-07 19:16 52.02877 -0.48235 30735 ft 436 kts 311°
2026-05-07 19:17 52.04978 -0.51765 30504 ft 434 kts 311°
2026-05-07 19:17 52.07070 -0.55286 30262 ft 432 kts 311°
2026-05-07 19:17 52.09153 -0.58796 29994 ft 430 kts 311°
2026-05-07 19:17 52.11226 -0.62293 29689 ft 428 kts 311°
2026-05-07 19:18 52.13287 -0.65777 29411 ft 427 kts 311°
2026-05-07 19:18 52.15341 -0.69253 29127 ft 425 kts 311°
2026-05-07 19:18 52.17387 -0.72720 28843 ft 423 kts 311°
2026-05-07 19:18 52.19421 -0.76172 28564 ft 422 kts 311°
2026-05-07 19:19 52.21449 -0.79619 28276 ft 420 kts 311°
2026-05-07 19:19 52.23490 -0.83027 28003 ft 420 kts 314°
2026-05-07 19:19 52.25771 -0.86011 27724 ft 421 kts 322°
2026-05-07 19:19 52.28200 -0.88674 27478 ft 420 kts 324°
2026-05-07 19:20 52.30671 -0.91229 27207 ft 420 kts 325°
2026-05-07 19:20 52.33163 -0.93719 26953 ft 419 kts 326°
2026-05-07 19:20 52.35657 -0.96178 26695 ft 418 kts 326°
2026-05-07 19:20 52.38146 -0.98626 26447 ft 417 kts 326°
2026-05-07 19:21 52.40620 -1.01069 26182 ft 413 kts 326°
2026-05-07 19:21 52.43058 -1.03488 25749 ft 408 kts 326°
2026-05-07 19:21 52.45473 -1.05897 25247 ft 405 kts 326°
2026-05-07 19:21 52.47870 -1.08297 24742 ft 403 kts 326°
2026-05-07 19:22 52.50258 -1.10696 24231 ft 402 kts 326°
2026-05-07 19:22 52.52637 -1.13092 23736 ft 400 kts 326°
2026-05-07 19:22 52.55003 -1.15477 23156 ft 399 kts 326°
2026-05-07 19:22 52.57361 -1.17856 22577 ft 396 kts 326°
2026-05-07 19:23 52.59701 -1.20219 22030 ft 394 kts 326°
2026-05-07 19:23 52.62029 -1.22572 21494 ft 391 kts 326°
2026-05-07 19:23 52.64337 -1.24908 20965 ft 388 kts 326°
2026-05-07 19:23 52.66631 -1.27233 20437 ft 386 kts 326°
2026-05-07 19:24 52.68911 -1.29545 19943 ft 384 kts 326°
2026-05-07 19:24 52.71144 -1.31815 19432 ft 381 kts 326°
2026-05-07 19:24 52.73425 -1.34136 18930 ft 379 kts 326°
2026-05-07 19:24 52.75664 -1.36418 18486 ft 377 kts 326°
2026-05-07 19:25 52.77861 -1.38660 17939 ft 376 kts 326°
2026-05-07 19:25 52.80079 -1.40925 17360 ft 374 kts 326°
2026-05-07 19:25 52.82281 -1.43178 16824 ft 371 kts 326°
2026-05-07 19:25 52.84472 -1.45420 16280 ft 369 kts 326°
2026-05-07 19:26 52.86648 -1.47652 15757 ft 367 kts 326°
2026-05-07 19:26 52.88808 -1.49869 15223 ft 365 kts 326°
2026-05-07 19:26 52.90959 -1.52079 14729 ft 362 kts 326°
2026-05-07 19:26 52.93089 -1.54270 14256 ft 359 kts 326°
2026-05-07 19:27 52.95206 -1.56451 13751 ft 357 kts 326°
2026-05-07 19:27 52.97309 -1.58620 13219 ft 354 kts 326°
2026-05-07 19:27 52.99389 -1.60767 12731 ft 350 kts 326°
2026-05-07 19:27 53.01445 -1.62891 12272 ft 346 kts 325°
2026-05-07 19:28 53.03476 -1.64993 11932 ft 343 kts 325°
2026-05-07 19:28 53.05410 -1.67295 11433 ft 339 kts 314°
2026-05-07 19:28 53.07008 -1.70063 11194 ft 325 kts 308°
2026-05-07 19:28 53.08463 -1.72849 11024 ft 313 kts 307°
2026-05-07 19:29 53.09849 -1.75545 10850 ft 301 kts 307°
2026-05-07 19:29 53.11185 -1.78147 10707 ft 290 kts 307°
2026-05-07 19:29 53.12471 -1.80655 10574 ft 280 kts 307°
2026-05-07 19:29 53.13715 -1.83074 10449 ft 270 kts 308°
2026-05-07 19:30 53.15163 -1.85020 10263 ft 270 kts 331°
2026-05-07 19:30 53.16952 -1.85978 10027 ft 270 kts 343°
2026-05-07 19:30 53.18784 -1.86624 9735 ft 268 kts 345°
2026-05-07 19:30 53.20609 -1.87232 9401 ft 267 kts 345°
2026-05-07 19:31 53.22433 -1.87845 9045 ft 267 kts 345°
2026-05-07 19:31 53.23636 -1.88257 8825 ft 266 kts 345°
2026-05-07 19:31 53.25450 -1.88881 8473 ft 266 kts 345°
2026-05-07 19:31 53.27245 -1.89505 8237 ft 259 kts 345°
2026-05-07 19:32 53.29005 -1.90118 7784 ft 259 kts 345°
2026-05-07 19:32 53.30770 -1.90746 7288 ft 260 kts 345°
2026-05-07 19:32 53.32544 -1.91384 7059 ft 261 kts 345°
2026-05-07 19:32 53.34320 -1.92035 7022 ft 262 kts 345°
2026-05-07 19:33 53.36101 -1.92691 7025 ft 262 kts 345°
2026-05-07 19:33 53.37879 -1.93353 7023 ft 261 kts 345°
2026-05-07 19:33 53.39617 -1.94198 7024 ft 259 kts 333°
2026-05-07 19:33 53.41036 -1.95961 7024 ft 254 kts 311°
2026-05-07 19:34 53.42400 -1.97854 6738 ft 260 kts 329°
2026-05-07 19:34 53.44157 -1.98579 6282 ft 263 kts 358°
2026-05-07 19:34 53.45978 -1.98371 5881 ft 261 kts
2026-05-07 19:34 53.47768 -1.98062 5504 ft 258 kts
2026-05-07 19:35 53.49577 -1.97748 4896 ft 264 kts
2026-05-07 19:35 53.51400 -1.97450 4290 ft 260 kts
2026-05-07 19:35 53.53155 -1.97175 4029 ft 249 kts
2026-05-07 19:35 53.54862 -1.96908 3994 ft 240 kts
2026-05-07 19:36 53.56462 -1.97112 3984 ft 226 kts 341°
2026-05-07 19:36 53.57969 -1.97819 3995 ft 226 kts 354°
2026-05-07 19:36 53.59483 -1.97308 4001 ft 224 kts 29°
2026-05-07 19:36 53.60562 -1.95531 4001 ft 215 kts 65°
2026-05-07 19:37 53.60843 -1.93159 4000 ft 204 kts 101°
2026-05-07 19:37 53.60280 -1.91096 3994 ft 190 kts 138°
2026-05-07 19:37 53.59144 -1.90140 4002 ft 183 kts 175°
2026-05-07 19:37 53.57896 -1.90450 4006 ft 183 kts 197°
2026-05-07 19:38 53.56694 -1.91172 3995 ft 184 kts 200°
2026-05-07 19:38 53.55491 -1.91935 3998 ft 184 kts 200°
2026-05-07 19:38 53.54295 -1.92706 3998 ft 184 kts 200°
2026-05-07 19:38 53.53115 -1.93479 3998 ft 184 kts 200°
2026-05-07 19:39 53.51920 -1.94261 3991 ft 184 kts 201°
2026-05-07 19:39 53.50807 -1.95336 3701 ft 186 kts 216°
2026-05-07 19:39 53.49882 -1.96858 3520 ft 188 kts 226°
2026-05-07 19:39 53.49056 -1.98570 3497 ft 189 kts 228°
2026-05-07 19:40 53.48247 -2.00301 3496 ft 187 kts 228°
2026-05-07 19:40 53.47441 -2.02018 3506 ft 188 kts 228°
2026-05-07 19:40 53.46626 -2.03738 3498 ft 189 kts 227°
2026-05-07 19:40 53.45810 -2.05454 3417 ft 187 kts 228°
2026-05-07 19:41 53.45009 -2.07139 3182 ft 183 kts 229°
2026-05-07 19:41 53.44219 -2.08807 2895 ft 182 kts 229°
2026-05-07 19:41 53.43440 -2.10457 2626 ft 178 kts 228°
2026-05-07 19:41 53.42682 -2.12058 2391 ft 174 kts 228°
2026-05-07 19:42 53.41931 -2.13641 2144 ft 171 kts 228°
2026-05-07 19:42 53.41223 -2.15136 1919 ft 155 kts 228°
2026-05-07 19:42 53.40586 -2.16483 1692 ft 141 kts 227°
2026-05-07 19:42 53.40017 -2.17731 1467 ft 129 kts 228°
2026-05-07 19:43 53.39472 -2.18957 1256 ft 136 kts 229°
2026-05-07 19:43 53.38883 -2.20237 1090 ft 140 kts 228°
2026-05-07 19:43 53.38256 -2.21509 934 ft 142 kts 228°
2026-05-07 19:43 53.37620 -2.22792 744 ft 145 kts 229°
2026-05-07 19:44 53.37001 -2.24104 533 ft 141 kts 230°
2026-05-07 19:44 53.36383 -2.25407 366 ft 143 kts 229°
2026-05-07 19:44 53.35762 -2.26685 250 ft 133 kts 230°
2026-05-07 19:44 53.35350 -2.27549 240 ft 56 kts 232°
2026-05-07 19:45 53.35245 -2.28007 237 ft 35 kts 260°
2026-05-07 19:45 53.35252 -2.28187 236 ft 8 kts 328°
2026-05-07 19:45 53.35308 -2.28183 236 ft 9 kts
2026-05-07 19:45 53.35379 -2.28168 236 ft 12 kts
2026-05-07 19:46 53.35462 -2.28140 237 ft 12 kts 18°
2026-05-07 19:46 53.35539 -2.28063 237 ft 14 kts 42°
2026-05-07 19:46 53.35607 -2.27935 237 ft 16 kts 46°
2026-05-07 19:46 53.35705 -2.27883 237 ft 16 kts
2026-05-07 19:47 53.35820 -2.27863 237 ft 18 kts
2026-05-07 19:47 53.35951 -2.27839 237 ft 20 kts
2026-05-07 19:47 53.36078 -2.27869 237 ft 16 kts 327°
2026-05-07 19:47 53.36162 -2.28007 237 ft 18 kts 315°
2026-05-07 19:48 53.36212 -2.28091 237 ft 0 kts 315°
2026-05-07 19:48 53.36213 -2.28092 237 ft 1 kts 315°
2026-05-07 19:48 53.36235 -2.28130 237 ft 9 kts 315°
2026-05-07 19:49 53.36285 -2.28214 237 ft 11 kts 315°
2026-05-07 19:49 53.36344 -2.28312 237 ft 13 kts 315°
2026-05-07 19:49 53.36408 -2.28423 237 ft 14 kts 315°
2026-05-07 19:49 53.36480 -2.28544 237 ft 15 kts 315°
2026-05-07 19:50 53.36547 -2.28680 236 ft 12 kts 289°
2026-05-07 19:50 53.36588 -2.28758 237 ft 9 kts 330°
2026-05-07 19:50 53.36647 -2.28745 237 ft 9 kts 34°
2026-05-07 19:50 53.36686 -2.28686 237 ft 2 kts 43°
2026-05-07 19:51 53.36707 -2.28684 237 ft 3 kts 339°
2026-05-07 19:51 53.36736 -2.28723 237 ft 7 kts 318°
2026-05-07 19:51 53.36755 -2.28755 237 ft 2 kts 315°
2026-05-07 19:51 53.36761 -2.28764 236 ft 1 kts 315°
2026-05-07 19:52 53.36764 -2.28769 237 ft 0 kts 315°
2026-05-07 19:52 53.36762 -2.28766 236 ft 0 kts 315°
2026-05-07 19:52 53.36757 -2.28758 236 ft 0 kts 315°